CW7054 Weather Reports


Display with metric or nautical units.
time (UTC)temp
F
wind
direction
speed
MPH
gust
MPH
rain 1hr
in
rain 24hr
in
rain mn
in
humidity
%
barometer
mb
20260902083024 65 80 2.0 7.0 0.00 0.18 0.03 84 1018.5
20260902081524 65 35 1.0 8.0 0.01 0.18 0.03 85 1018.5
20260902080023 65 11 1.0 7.0 0.01 0.18 0.03 87 1018.5
20260902074521 65 55 2.0 6.0 0.01 0.19 0.03 88 1018.3
20260902073020 65 43 1.0 4.0 0.01 0.19 0.03 89 1018.1
20260902071530 65 38 1.0 4.0 0.00 0.18 0.02 90 1017.8
20260902070018 65 42 1.0 6.0 0.01 0.18 0.02 90 1017.9
20260902064516 65 67 1.0 6.0 0.01 0.19 0.02 91 1017.8
20260902063016 65 67 0.0 6.0 0.01 0.19 0.02 92 1017.7
20260902061514 66 46 0.0 8.0 0.01 0.19 0.02 92 1017.5
20260902060011 67 53 2.0 8.0 0.00 0.18 0.01 93 1017.5
20260902054512 67 40 1.0 4.0 0.01 0.19 0.01 93 1017.6
20260902053010 66 40 1.0 5.0 0.01 0.19 0.01 93 1017.9
20260902051510 66 42 0.0 3.0 0.01 0.19 0.01 93 1017.9
20260902050009 66 40 0.0 4.0 0.01 0.19 0.01 93 1017.9
20260902044511 66 40 2.0 8.0 0.00 0.18 0.00 93 1017.4
20260902043004 66 69 0.0 8.0 0.01 0.18 0.00 93 1017.3
20260902041502 66 60 1.0 6.0 0.01 0.18 0.00 92 1017.3
20260902040000 66 56 0.0 5.0 0.01 0.18 0.00 92 1017.3
20260902034600 66 31 0.0 8.0 0.01 0.19 0.18 92 1017.4
20260902033112 67 47 1.0 9.0 0.00 0.18 0.17 92 1017.5
20260902031601 67 73 3.0 8.0 0.01 0.18 0.17 92 1017.4
20260902030058 66 83 3.0 7.0 0.01 0.18 0.17 91 1017.1
20260902024608 66 86 0.0 9.0 0.01 0.18 0.17 92 1017.1
20260902023058 66 84 4.0 13.0 0.01 0.18 0.17 92 1016.8
20260902021557 66 73 1.0 12.0 0.00 0.17 0.16 92 1016.6
20260902020118 66 62 2.0 9.0 0.01 0.17 0.16 92 1016.5
20260902014601 66 78 1.0 5.0 0.01 0.18 0.16 92 1016.2
20260902013054 66 24 4.0 11.0 0.01 0.18 0.16 92 1016.2
20260902011554 66 82 3.0 9.0 0.00 0.17 0.15 92 1015.9
20260902010054 66 46 2.0 9.0 0.01 0.17 0.15 92 1015.7
20260902004553 66 42 0.0 10.0 0.01 0.18 0.15 92 1016.0
20260902003051 66 59 3.0 12.0 0.01 0.18 0.15 92 1015.7
20260902001550 66 14 3.0 13.0 0.01 0.18 0.15 92 1015.7
20260902000049 66 57 1.0 10.0 0.01 0.17 0.14 92 1015.6
20260901234602 67 105 3.0 14.0 0.01 0.18 0.14 91 1015.5
20260901233052 67 65 3.0 13.0 0.01 0.18 0.14 91 1015.4
20260901231544 68 76 3.0 11.0 0.01 0.18 0.14 90 1015.1
20260901230047 68 19 2.0 13.0 0.01 0.17 0.13 90 1015.2
20260901224541 69 40 2.0 12.0 0.01 0.17 0.13 91 1014.9
20260901223037 71 84 2.0 9.0 0.01 0.17 0.13 92 1014.8
20260901221601 72 87 1.0 9.0 0.01 0.17 0.13 93 1014.7
20260901220035 73 57 0.0 4.0 0.01 0.16 0.12 92 1014.7
20260901214536 73 47 1.0 5.0 0.01 0.17 0.12 92 1014.8
20260901213038 73 58 0.0 5.0 0.01 0.17 0.12 92 1014.7
20260901211537 74 71 0.0 3.0 0.02 0.17 0.12 92 1014.6
20260901210037 74 71 1.0 5.0 0.01 0.16 0.11 92 1014.4
20260901204535 75 180 0.0 1.0 0.01 0.17 0.11 93 1014.3
20260901203045 75 180 0.0 0.0 0.01 0.17 0.11 94 1014.2
20260901201535 75 181 0.0 1.0 0.00 0.16 0.10 94 1014.1
20260901200026 74 181 0.0 2.0 0.00 0.16 0.10 94 1014.0
20260901194520 74 181 0.0 0.0 0.00 0.17 0.10 95 1014.0
20260901193018 74 181 0.0 1.0 0.01 0.17 0.10 95 1013.9
20260901191518 74 181 0.0 3.0 0.01 0.17 0.10 95 1013.9
20260901190011 74 180 0.0 1.0 0.01 0.17 0.10 96 1014.1
20260901184504 73 182 0.0 3.0 0.01 0.17 0.10 96 1014.2
20260901183106 73 183 0.0 4.0 0.00 0.16 0.09 96 1014.2
20260901181556 73 180 0.0 1.0 0.00 0.16 0.09 96 1014.3
20260901180052 73 180 0.0 1.0 0.00 0.16 0.09 96 1014.2
20260901174548 73 179 0.0 5.0 0.00 0.16 0.09 97 1014.2
20260901173043 72 173 0.0 6.0 0.00 0.16 0.09 96 1014.4
20260901171540 71 175 0.0 1.0 0.00 0.16 0.09 96 1014.6
20260901170037 71 175 0.0 1.0 0.00 0.16 0.09 95 1015.0
20260901164536 71 175 0.0 0.0 0.00 0.17 0.09 95 1014.9
20260901163034 71 175 0.0 0.0 0.00 0.17 0.09 95 1015.2
20260901161539 71 175 0.0 3.0 0.00 0.17 0.09 95 1015.2
20260901160047 71 175 0.0 4.0 0.00 0.17 0.09 95 1015.6
20260901154531 71 177 0.0 3.0 0.00 0.18 0.09 95 1015.4
20260901153036 71 176 0.0 3.0 0.00 0.18 0.09 96 1015.4
20260901151529 71 176 0.0 2.0 0.00 0.18 0.09 96 1015.8
20260901150032 70 176 0.0 1.0 0.01 0.18 0.09 95 1015.8
20260901144528 70 176 0.0 1.0 0.01 0.18 0.09 95 1016.3
20260901143030 70 176 0.0 1.0 0.01 0.18 0.09 95 1016.2
20260901141527 70 176 0.0 2.0 0.01 0.18 0.09 95 1015.8
20260901140027 71 176 0.0 3.0 0.00 0.17 0.08 95 1015.8
20260901134544 70 160 0.0 3.0 0.01 0.18 0.08 95 1015.6
20260901133025 70 157 0.0 3.0 0.01 0.18 0.08 96 1015.5
20260901131523 70 155 0.0 0.0 0.01 0.18 0.08 96 1015.8
20260901130022 70 155 0.0 0.0 0.01 0.18 0.08 95 1015.9
20260901124526 69 155 0.0 1.0 0.01 0.18 0.07 95 1015.9
20260901123021 70 155 0.0 1.0 0.01 0.18 0.07 95 1015.8
20260901121520 69 155 0.0 2.0 0.01 0.18 0.07 95 1015.9
20260901120019 69 155 0.0 1.0 0.01 0.18 0.07 95 1016.2
20260901114526 69 156 0.0 1.0 0.00 0.17 0.06 95 1016.0
20260901113019 69 156 0.0 0.0 0.01 0.17 0.06 95 1015.9
20260901111517 69 156 0.0 0.0 0.01 0.17 0.06 94 1016.0
20260901110016 69 156 0.0 1.0 0.01 0.17 0.06 94 1016.1
20260901104515 69 156 0.0 1.0 0.01 0.18 0.06 94 1016.0
20260901103013 69 155 0.0 1.0 0.01 0.17 0.05 94 1015.9
20260901101513 69 155 0.0 2.0 0.01 0.17 0.05 94 1015.9
20260901100013 69 137 0.0 0.0 0.01 0.17 0.05 94 1015.7
20260901094512 69 137 0.0 1.0 0.01 0.18 0.05 94 1015.7
20260901093017 69 137 0.0 0.0 0.01 0.17 0.04 93 1016.0
20260901091509 69 137 0.0 0.0 0.01 0.17 0.04 93 1016.1
20260901090010 69 137 0.0 0.0 0.01 0.17 0.04 93 1016.1
20260901084522 69 137 0.0 0.0 0.01 0.17 0.04 93 1016.3